GFSNE_prec_cthk_057.txt.gz
RH
66 69 61 60 66 61 70 76 67 70 73 80 73 68 71 66 63 60 57 54 53 52 52 52 53 54 51 49 50 48 45 47 46 40 38 40 40 39
62 59 61 64 59 68 76 69 66 75 77 83 68 69 69 64 58 52 50 49 50 52 55 55 54 55 56 52 58 59 56 68 64 55 48 45 43 41
60 63 65 59 68 61 60 62 66 77 81 72 68 67 60 50 47 46 46 47 46 50 54 57 56 57 54 67 76 64 79 81 74 73 59 56 49 46
62 63 58 62 69 67 62 62 69 74 72 68 66 53 43 43 44 44 44 46 48 49 52 51 51 49 49 69 64 73 78 86 88 81 71 63 54 49
65 61 69 67 59 60 63 66 77 78 74 67 51 45 47 47 43 43 43 42 43 42 40 38 39 40 42 37 59 69 76 86 91 90 85 70 59 50
61 58 66 63 61 62 70 72 75 72 61 48 46 46 45 44 45 45 42 42 40 39 36 35 37 34 31 36 49 66 96 87 93 98 86 76 61 53
61 59 61 61 61 71 75 74 74 58 48 48 48 46 46 45 46 47 45 40 36 35 29 26 27 25 24 32 43 55 88 85 97 93 87 78 67 54
56 60 60 62 73 78 74 78 58 50 52 50 48 47 48 48 44 39 35 33 28 27 30 26 28 35 28 33 42 57 75 91 98 93 87 79 68 59
56 60 63 72 79 79 72 58 55 56 52 49 46 46 45 44 41 40 38 36 32 27 25 17 13 14 23 44 50 63 89 97 93 95 90 79 73 67
61 65 71 79 81 64 58 56 56 52 45 43 45 46 46 47 48 47 44 41 35 30 30 28 18 18 26 59 61 69 88 91 96 95 87 81 76 68
68 74 79 72 64 59 58 55 50 49 52 52 51 49 49 49 51 52 49 50 40 29 26 30 25 33 52 62 71 78 84 90 97 93 88 81 70 56
69 66 60 63 64 63 55 50 50 55 54 51 50 52 51 49 49 49 51 50 49 38 27 36 42 57 53 52 81 82 88 92 93 89 86 75 60 55
58 65 67 67 60 54 50 52 58 54 53 53 55 56 53 52 51 50 48 45 43 40 43 47 46 54 69 79 80 89 93 96 95 89 77 65 63 65
71 72 67 59 56 54 59 63 58 56 57 58 58 56 55 55 53 50 45 38 29 43 49 58 58 66 78 89 93 97 94 91 84 73 66 70 70 67
74 67 60 56 58 69 71 61 58 65 61 62 62 59 61 58 54 47 41 30 33 46 56 63 70 78 90 93 96 91 89 87 76 70 70 75 72 62
66 60 70 79 78 68 61 62 67 65 69 66 65 65 62 57 51 46 34 24 37 48 65 77 77 78 90 94 95 88 85 84 83 75 75 75 65 61
80 84 80 71 67 67 69 72 72 73 71 73 69 65 61 55 44 33 26 27 40 57 68 84 89 84 88 89 86 86 90 87 85 78 77 66 65 71
80 73 72 78 80 77 75 78 80 79 77 73 68 65 57 46 34 25 26 34 40 56 72 87 86 87 88 88 86 90 92 91 85 79 74 65 69 81
79 83 82 78 75 84 89 88 82 81 76 71 67 56 45 34 27 24 25 37 46 58 76 84 90 92 90 91 94 91 89 88 83 76 69 73 74 84
91 85 88 97 97 94 92 87 83 78 73 67 56 42 34 28 24 25 27 36 54 64 83 89 90 95 93 91 95 96 90 87 84 70 66 73 79 87
97 98 98 98 97 94 89 85 80 73 64 51 38 35 31 27 27 30 34 36 57 74 90 86 94 97 96 95 97 95 89 87 83 68 66 71 83 88
98 98 98 98 96 90 85 76 63 54 42 36 32 30 29 30 32 34 40 38 56 77 86 99 97 98 99 97 97 97 96 88 80 66 67 70 86 91
98 98 98 95 88 77 67 55 43 37 33 31 30 30 33 36 38 38 43 44 51 82 92 99 97 95 97 98 99 99 97 88 80 67 73 73 88 97

GFSNE_prec_cthk_060.txt.gz
RH
76 76 80 70 64 66 58 62 67 55 60 65 64 68 74 82 81 71 64 60 55 54 55 54 54 55 58 61 60 57 58 69 67 65 66 67 57 57
82 78 69 67 63 62 62 62 55 62 59 57 62 64 74 78 70 64 55 52 51 51 50 52 53 56 60 59 59 59 60 65 64 70 79 85 79 77
84 81 76 71 62 64 57 57 57 63 59 59 62 72 75 74 62 45 44 45 45 46 49 51 51 52 50 53 54 55 55 53 52 65 78 76 81 81
92 84 78 70 61 60 56 61 63 56 59 63 69 73 76 62 48 44 44 44 46 46 47 46 46 45 45 42 41 42 45 43 40 45 60 94 81 91
82 76 73 64 62 62 57 68 67 64 65 69 73 75 61 51 46 45 44 43 43 42 43 43 41 38 35 33 32 33 34 36 39 45 57 75 88 95
76 74 69 66 63 57 62 63 65 67 70 77 74 61 54 49 46 43 42 42 45 46 45 43 39 34 29 27 26 26 26 28 40 43 60 83 97 97
70 69 69 67 59 63 71 62 72 70 79 81 68 60 52 48 46 45 44 45 44 48 46 45 41 36 32 24 21 27 30 31 41 47 57 91 90 92
72 71 64 62 61 69 65 67 72 80 84 74 63 55 51 48 48 49 51 47 48 50 45 43 42 37 31 25 18 21 26 32 38 51 69 83 91 91
74 66 63 63 64 65 66 72 79 85 79 66 58 52 48 49 55 55 53 53 50 50 49 41 43 38 33 25 21 18 30 43 45 64 80 90 95 90
69 62 59 60 61 66 72 78 84 79 67 59 52 51 51 61 57 53 56 51 50 53 55 48 46 40 31 26 28 37 41 54 57 69 85 89 90 84
62 59 60 62 66 72 78 82 77 66 59 54 54 52 63 58 56 55 57 55 51 53 58 56 47 44 31 24 29 41 53 61 74 75 78 87 88 85
64 62 64 67 72 78 78 68 65 58 55 54 54 62 61 59 61 66 65 63 64 54 60 55 50 47 40 27 32 45 52 70 79 81 85 85 85 82
69 68 71 75 75 70 65 59 61 57 54 59 68 70 65 65 67 67 67 68 64 62 57 58 41 40 45 44 43 58 70 81 88 89 86 80 76 71
77 79 77 74 68 63 59 64 63 65 72 76 70 64 69 71 70 70 70 66 66 62 54 54 45 46 53 58 66 67 79 86 88 85 80 74 68 67
83 77 74 70 65 60 67 75 77 80 78 69 69 74 75 76 76 73 68 62 59 56 52 43 48 56 62 68 74 83 88 86 87 85 75 70 72 71
86 83 73 66 71 83 87 86 82 76 73 76 78 82 83 78 75 71 64 60 54 42 32 40 52 61 65 76 84 85 90 90 86 83 79 78 73 75
85 76 80 89 92 88 83 79 85 87 82 87 88 85 83 77 73 65 61 55 44 31 18 24 49 62 69 79 80 90 92 89 88 88 86 84 78 74
87 91 95 90 85 83 91 90 87 90 92 89 89 85 79 74 67 63 55 43 32 21 24 30 43 64 77 80 82 89 90 90 92 93 90 82 76 75
97 96 94 94 96 95 94 97 97 95 94 91 88 81 76 69 63 52 42 30 21 20 25 36 47 75 81 80 90 92 91 93 92 90 85 81 73 77
97 97 97 97 98 98 98 98 98 98 95 90 82 76 70 61 51 39 27 22 22 22 25 40 56 75 84 90 91 94 91 91 91 89 86 79 71 79
97 98 98 98 98 98 98 98 98 95 87 81 75 66 57 45 32 28 26 27 27 28 29 41 66 87 92 93 93 92 95 94 92 91 88 75 73 80
98 98 98 98 98 99 99 98 92 85 76 67 56 44 34 31 30 29 30 30 31 33 33 43 71 93 94 96 96 99 97 95 95 90 84 72 74 78
99 99 99 99 99 97 89 81 70 59 46 36 33 32 34 34 35 36 37 40 38 38 39 43 78 91 99 98 99 99 96 98 95 89 83 78 78 78

GFSNE_prec_cthk_063.txt.gz
RH
89 94 88 80 84 86 85 78 65 64 61 69 67 62 68 69 66 63 69 76 72 67 57 52 51 48 47 49 50 51 54 56 58 61 63 72 71 78
90 92 91 83 83 86 77 71 65 66 65 62 61 66 63 63 63 69 73 74 64 53 47 47 46 45 46 47 48 52 55 55 53 52 57 54 61 74
93 95 96 94 91 87 85 76 67 63 63 61 65 65 69 67 70 75 74 61 50 46 45 44 44 45 45 46 46 48 46 45 44 48 45 47 54 66
97 95 95 97 91 90 80 76 70 61 60 65 66 68 64 64 71 71 58 51 46 44 43 46 46 45 47 46 45 43 39 38 37 37 39 37 42 54
96 90 93 94 92 82 81 76 71 66 58 63 62 68 72 71 64 59 55 48 45 46 46 47 48 51 53 51 47 44 40 35 30 27 27 26 28 42
94 92 90 87 79 79 74 72 65 71 60 70 68 64 69 67 62 60 52 45 48 48 49 53 57 58 57 53 49 43 39 33 26 27 26 24 28 48
88 87 83 78 74 75 72 68 70 66 62 68 73 66 70 63 61 56 48 48 48 51 58 60 61 59 56 51 47 43 37 30 22 25 28 24 34 49
86 85 82 83 84 81 74 75 66 72 64 67 69 71 69 65 61 52 48 48 55 61 59 60 61 57 54 50 46 41 35 27 21 21 22 34 40 50
83 86 85 88 84 76 78 68 65 66 66 70 73 70 67 65 56 51 51 57 61 62 61 59 62 57 54 50 47 42 37 33 30 26 39 46 55 67
90 92 96 93 79 84 76 75 67 66 70 74 71 68 65 57 54 53 61 66 65 64 69 63 66 57 56 56 48 41 36 34 35 43 50 55 69 79
96 96 95 86 78 80 78 76 73 75 77 75 70 63 56 59 61 65 70 70 65 73 73 71 65 63 58 54 50 37 34 35 34 45 56 68 76 78
95 99 94 79 81 81 81 82 83 83 79 70 64 60 62 68 68 77 74 68 76 76 78 69 66 66 56 53 47 40 35 36 41 50 62 69 78 84
90 90 78 77 80 82 86 87 86 79 72 66 62 67 74 79 83 77 74 82 80 80 78 69 67 66 67 56 39 43 39 42 48 60 71 81 80 76
80 77 80 83 87 90 88 87 78 70 68 72 79 86 86 83 77 85 92 87 82 76 72 67 63 64 62 50 47 43 49 56 63 69 77 78 75 74
85 89 93 93 93 88 86 75 74 77 82 91 91 86 81 86 96 92 87 82 78 73 67 63 64 58 54 49 47 52 57 67 64 72 76 76 72 70
93 94 96 95 90 85 81 88 93 95 89 87 89 92 94 94 91 88 84 77 73 68 65 61 57 48 42 46 55 60 69 77 75 82 78 76 74 76
97 97 93 89 92 95 96 96 91 91 95 95 93 96 97 95 89 85 79 75 70 65 61 53 38 32 28 44 57 63 81 82 86 89 78 80 86 77
96 96 96 96 96 96 93 91 96 97 97 97 97 97 96 90 87 81 77 73 69 62 50 36 24 23 33 40 57 71 85 87 88 89 83 87 93 81
96 96 96 96 96 96 96 96 97 97 98 97 97 96 92 88 82 80 75 70 62 50 38 22 26 31 38 44 71 79 85 89 92 86 89 90 89 86
93 91 91 91 92 94 95 97 97 97 96 96 96 93 89 85 80 72 64 53 41 30 27 28 31 38 46 52 75 80 90 93 88 90 91 91 84 79
94 94 93 94 94 95 95 96 96 96 96 96 92 83 72 62 52 41 35 32 30 30 30 31 34 37 52 62 73 85 94 95 92 95 95 93 93 85
94 94 93 94 95 96 96 95 93 83 71 61 51 39 33 33 34 34 34 35 35 35 34 34 37 39 57 71 89 94 96 95 94 94 95 94 93 82
95 95 94 88 77 63 53 48 44 39 35 34 32 33 34 37 38 39 40 41 41 41 42 40 42 43 60 80 95 96 96 99 99 94 96 90 84 78

GFSNE_prec_cthk_069.txt.gz
RH
82 90 85 79 76 80 76 79 81 88 92 87 86 82 77 80 74 73 67 56 55 53 53 53 53 55 55 55 51 47 44 42 43 43 44 46 48 50
77 79 81 79 80 77 72 75 87 90 93 98 91 90 87 85 82 78 67 57 56 52 50 50 51 52 51 44 42 40 36 37 43 45 46 49 52 51
74 75 77 74 69 69 75 81 89 96 99 98 98 97 95 97 81 73 73 68 60 59 55 56 56 51 44 42 37 35 37 42 46 50 53 56 55 53
70 74 72 73 73 77 84 85 99 98 94 94 96 96 95 92 80 75 82 70 70 61 60 54 53 43 42 39 37 39 45 48 54 57 62 58 57 55
72 76 76 77 82 86 96 96 96 99 97 93 90 86 94 95 84 90 81 78 71 65 58 55 49 44 42 40 43 48 49 53 57 64 61 61 58 54
71 71 71 74 77 77 91 95 97 98 97 95 89 96 91 85 95 91 85 84 78 71 63 57 50 48 47 51 52 53 58 64 70 63 63 62 58 54
83 82 75 74 76 79 83 86 90 94 98 98 91 92 88 97 96 97 91 84 77 76 73 61 58 60 59 58 60 65 68 75 70 67 65 62 58 53
80 80 85 88 87 92 91 94 94 98 97 92 93 87 95 95 98 97 96 89 83 79 69 71 70 65 62 62 71 76 76 75 71 67 64 60 55 50
71 83 92 94 95 96 98 97 93 90 96 98 91 91 96 99 99 98 98 93 86 78 76 69 64 63 73 79 78 80 79 76 73 70 65 60 56 49
77 78 86 92 95 94 96 93 91 88 93 87 86 94 98 98 98 97 95 91 85 76 75 71 78 80 81 81 82 82 80 77 77 72 69 64 56 48
74 75 79 84 86 89 89 89 89 98 86 98 94 93 96 97 97 95 83 73 83 83 81 84 85 82 84 84 83 83 83 82 80 75 74 68 56 48
69 69 71 75 79 84 86 85 85 84 87 88 92 98 98 94 85 82 89 84 81 84 90 90 91 91 82 84 85 85 84 82 77 77 74 72 59 50
66 66 66 70 75 79 82 87 92 87 98 97 94 96 97 96 92 89 83 82 86 92 95 91 91 92 91 83 83 86 83 77 73 73 84 79 64 54
74 72 71 74 80 85 91 98 99 96 96 97 96 96 93 88 88 91 93 95 94 91 91 94 91 94 91 86 82 80 81 81 75 72 76 79 61 60
83 83 88 90 93 94 98 97 97 97 97 96 93 93 93 94 96 96 92 91 91 91 92 91 89 90 91 85 81 80 79 74 68 51 47 65 73 72
89 92 96 98 97 97 97 97 96 97 96 95 96 96 96 96 96 95 93 92 88 86 87 88 87 86 84 84 83 77 70 42 29 24 45 72 77 84
95 97 97 97 97 97 97 96 95 95 95 95 95 94 95 94 93 91 89 88 88 88 88 90 91 89 81 71 57 40 31 32 31 30 35 74 74 84
97 97 97 97 97 96 97 97 95 96 95 95 95 92 88 88 89 88 88 90 89 87 83 75 66 58 51 43 44 41 41 45 45 46 52 78 80 84
96 96 96 96 96 96 96 96 96 92 89 89 88 89 91 89 87 85 78 71 64 60 54 50 47 45 42 36 36 50 44 39 34 36 65 89 84 87
96 96 96 95 96 96 95 95 94 93 90 89 86 79 70 64 58 52 47 44 41 38 36 36 39 45 48 46 36 32 30 26 36 45 73 90 98 96
96 96 97 96 96 95 93 92 88 78 66 58 58 54 49 44 40 37 36 36 36 37 42 43 44 46 44 41 37 35 37 39 46 55 83 92 99 94
96 95 93 90 86 75 63 56 52 49 47 43 40 36 34 34 33 34 35 37 38 42 44 47 48 48 49 49 47 42 38 40 45 64 85 80 98 98
82 71 60 54 50 44 37 33 31 29 28 28 28 31 33 34 35 37 39 41 44 46 49 49 52 54 53 51 49 46 44 44 58 83 91 91 99 88

GFSNE_prec_cthk_072.txt.gz
RH
89 86 85 86 85 88 89 90 88 81 76 71 73 79 80 84 84 85 81 85 80 79 73 65 62 57 54 55 55 54 49 47 43 40 37 34 35 43
85 85 82 81 84 85 87 90 88 78 73 67 72 81 85 90 90 90 92 93 91 86 79 73 66 63 58 59 55 54 48 42 40 35 33 34 42 48
78 78 81 78 80 81 80 84 86 82 79 78 92 93 98 95 91 91 94 94 95 85 77 77 74 72 68 60 56 53 46 43 40 38 40 47 50 53
70 74 73 74 75 77 79 83 82 81 87 89 89 95 98 98 97 96 96 97 91 87 88 90 82 79 77 67 60 53 49 50 51 53 51 52 56 58
66 70 73 77 78 80 81 79 78 83 86 83 91 97 98 97 91 91 88 96 97 89 95 96 94 87 84 80 71 59 58 56 57 55 56 59 64 64
72 75 76 79 77 78 80 76 77 80 85 82 87 90 95 99 96 92 91 88 88 93 99 95 96 91 86 81 70 63 64 63 62 61 63 67 67 66
70 71 72 75 80 82 89 88 91 92 94 92 90 90 94 97 96 96 97 93 90 97 98 97 89 91 87 83 73 70 65 65 66 70 72 73 71 70
56 56 58 62 64 69 76 88 90 95 96 97 98 94 98 98 90 95 99 89 87 92 94 98 98 92 88 81 73 71 71 73 78 78 78 75 71 68
54 55 56 60 66 74 82 87 93 98 98 98 96 96 96 87 93 99 96 97 97 97 98 94 95 89 80 74 76 80 83 82 81 80 79 74 71 69
54 58 60 66 71 77 78 79 82 88 86 96 87 88 85 89 90 90 88 97 98 98 97 95 86 82 83 80 85 85 82 83 81 80 76 73 74 73
70 70 70 68 67 70 76 77 78 80 83 81 91 97 82 80 87 89 88 97 96 92 90 91 93 84 80 83 84 84 84 81 77 76 78 78 79 76
78 79 81 84 84 79 77 78 80 80 79 80 80 86 82 87 98 97 96 94 96 96 91 87 87 87 80 82 84 82 81 80 78 82 79 74 74 77
86 87 87 91 88 84 83 83 83 84 84 84 84 89 94 97 97 97 97 97 95 91 91 89 88 90 89 81 79 81 81 81 81 80 81 76 76 78
97 94 92 95 94 87 84 87 87 88 91 97 96 97 97 96 97 96 96 95 92 92 94 95 88 85 84 80 75 73 78 79 81 81 75 61 56 53
99 98 98 96 98 96 92 96 93 92 94 97 97 97 96 96 95 96 95 94 92 92 89 89 86 82 80 79 76 76 73 70 67 60 54 43 37 43
99 99 98 98 97 96 96 96 97 97 97 97 97 97 96 96 95 94 92 89 84 82 82 82 83 82 79 77 74 64 58 51 40 33 29 28 28 33
97 98 98 98 98 97 97 97 97 96 96 96 96 96 96 94 90 88 87 86 83 80 78 75 72 67 62 58 53 47 41 37 36 37 43 38 35 39
94 94 96 96 97 97 96 96 96 96 96 95 95 92 90 88 86 84 79 72 68 62 57 54 53 49 42 38 40 42 41 41 41 41 45 43 35 36
97 96 97 96 96 96 96 96 96 95 94 92 89 86 80 70 63 56 52 49 48 46 42 39 39 38 37 32 33 43 42 39 39 39 38 32 37 46
97 96 95 97 95 95 96 96 96 95 87 75 64 57 51 47 45 41 40 38 37 36 36 35 36 42 43 42 36 30 37 35 34 35 33 36 41 79
96 96 96 96 94 94 91 82 70 60 54 51 48 44 41 39 36 34 35 36 39 37 35 35 36 39 41 41 38 32 34 39 47 47 45 40 45 80
96 94 89 79 68 60 54 51 50 47 43 41 39 36 32 32 33 33 33 34 34 36 37 38 38 40 46 50 48 42 37 37 41 44 47 46 79 96
69 63 56 52 49 47 44 39 37 34 31 31 30 29 28 27 27 29 32 35 38 40 42 44 45 48 49 51 50 49 47 44 45 47 50 58 96 99